This demonstration page uses our WeatherBlox Daily Observations layout. Learn more.

Left ArrowRight Arrow

34.74481, -87.66753

Hourly Observations for June 12, 2019

Temp ( °F °C ) Dew Point ( °F °C ) Humidity (%) Winds ( mph kmh ) Pressure ( in mb ) Visibility ( mi km ) Precip ( " mm )
12:53 am 00:53 Clear 65 18.3 53 11.7 66 66 Calm 30.00 1016 10 16 0.00 0.00
1:53 am 01:53 Clear 62 16.7 55 12.8 78 78 Calm 29.99 1016 10 16 0.00 0.00
2:53 am 02:53 Clear 61 16.1 56 13.3 84 84 Calm 29.96 1015 10 16 0.00 0.00
3:53 am 03:53 Clear 61 16.1 56 13.3 84 84 Calm 29.96 1015 10 16 0.00 0.00
4:53 am 04:53 Clear 60 15.6 56 13.3 86 86 Calm 29.96 1015 10 16 0.00 0.00
5:53 am 05:53 Sunny 61 16.1 57 13.9 87 87 Calm 29.97 1015 10 16 0.00 0.00
6:53 am 06:53 Sunny 64 17.8 58 14.4 81 81 Calm 29.96 1015 10 16 0.00 0.00
7:53 am 07:53 Sunny 68 20 58 14.4 70 70 E 5 7 29.94 1014 10 16 0.00 0.00
8:53 am 08:53 Sunny 70 21.1 60 15.6 71 71 SE 5 7 29.93 1014 10 16 0.00 0.00
9:53 am 09:53 Sunny 71 21.7 60 15.6 68 68 S 3 6 29.93 1014 10 16 0.00 0.00
10:53 am 10:53 Sunny 74 23.3 60 15.6 62 62 W 7 11 29.95 1014 10 16 0.00 0.00
11:53 am 11:53 Sunny 77 25 60 15.6 56 56 WSW 6 9 29.94 1014 10 16 0.00 0.00
12:53 pm 12:53 Sunny 81 27.2 60 15.6 49 49 WNW 8 13 29.93 1013 10 16 0.00 0.00
1:53 pm 13:53 Mostly Sunny 82 27.8 59 15 46 46 Calm 29.88 1012 10 16 0.00 0.00
2:53 pm 14:53 Mostly Cloudy 84 28.9 58 14.4 41 41 W 9 15 29.88 1012 10 16 0.00 0.00
3:53 pm 15:53 Sunny 85 29.4 52 11.1 32 32 W 16 26 29.86 1011 10 16 0.00 0.00
4:53 pm 16:53 Sunny 84 28.9 54 12.2 36 36 NNW 9 15 29.85 1011 10 16 0.00 0.00
5:53 pm 17:53 Mostly Cloudy 82 27.8 55 12.8 40 40 NW 8 13 29.85 1011 10 16 0.00 0.00
6:53 pm 18:53 Partly Cloudy 81 27.2 50 10 34 34 WNW 9 15 29.86 1011 10 16 0.00 0.00
7:53 pm 19:53 Sunny 76 24.4 52 11.1 43 43 WNW 7 11 29.88 1012 10 16 0.00 0.00
8:53 pm 20:53 Cloudy 75 23.9 54 12.2 48 48 WNW 7 11 29.89 1012 10 16 0.00 0.00
9:53 pm 21:53 Partly Cloudy 72 22.2 55 12.8 55 55 WNW 5 7 29.91 1013 10 16 0.00 0.00
10:53 pm 22:53 Cloudy 70 21.1 56 13.3 61 61 NW 6 9 29.93 1014 10 16 0.00 0.00
11:53 pm 23:53 Mostly Clear 67 19.4 56 13.3 68 68 WNW 3 6 29.92 1013 10 16 0.00 0.00

Powered by AerisWeather